Location: Sungai Bunut
(2.6333°N, 113.7333°E)
Time: 20:42:22
(UTC+00:00)

Vanguard 3 - Pass Details

Date: 06 December 2023
Orbit: 508 x 3239 km, 33.4° (Epoch: 24 February)

Event Time Altitude Azimuth Distance (km) Brightness Sun altitude
Rises 13:34:19 0° 270° (W) 6,931 12.5 -46.1°
Reaches altitude 10° 13:41:08 10° 283° (WNW) 5,541 11.7 -47.5°
Enters shadow 13:51:14 21° 323° (NW) 3,867 10.5 -49.7°
Maximum altitude 13:51:49 21° 326° (NW) 3,811 - -49.8°
Drops below altitude 10° 13:59:33 10° 12° (NNE) 3,859 - -51.4°
Sets 14:03:12 0° 28° (NNE) 4,413 - -52.2°
